COSMOS 2251 DEB, 38067

Orbit data source: Space-Track

COSMOS 2251 DEB, 38067 is space debris in LEO originally from a launch on Wed, 16 Jun 1993 UTC launched from the Plesetsk Missile And Space Complex (PKMTR). The debris from Iridium 33, an American commercial communications satellite, has been tracked extensively since its accidental collision with the defunct Russian satellite Cosmos 2251 in 2009. This event, occurring at high speed in low Earth orbit (LEO), generated thousands of pieces of space debris, significantly increasing the risk of further collisions. The Iridium 33 debris cloud has impacted space traffic management and orbital debris mitigation strategies, making it a subject of ongoing study in space situational awareness.

Loading next visibility...
Identifier
38067, 1993-036BRZ
Orbit
LEO
Country
Flag of CISCIS
Related business
Manufacturer
Unknown
Mission
Spacecraft
Bus & Motor
Unknown
Mass
Unknown
Launch date (UTC)
1993-06-16 (33 years ago)
Launch vehicle
Unknown
Launch site
Plesetsk Missile And Space Complex (PKMTR)
Object type
Payload
Rocket body
Debris
Shape & HBR
Unknown shape, 0.1 m
Radar Cross Section
Small (<0.1 m²)

Expand to show TLE details & history
Last TLE update: 2 days ago

TLE from 2 days ago
0 COSMOS 2251 DEB
1 38067U 93036BRZ 25354.01294318  .00001204  00000-0  24257-3 0  9992
2 38067  74.0171 260.5817 0069695  46.2502 329.5601 14.61151533626627
Epoch: 2025-12-20T00:18Z
TLE epoch observation values (Epoch: 2025-12-20T00:18:38.290Z)
Latitude
14.77318°
Longitude
171.38462°
Altitude
648.996 km
Speed
7.557 km/s
True Right ascension
17h 39m 33s
True Declination
14° 41' 14"
Sunlit
Object was in daylight at epoch
Visualization orbit readout
Latitude
Unknown
Longitude
Unknown
Altitude
Unknown
Speed
Unknown
Apparent Right ascension
Unknown
Apparent Declination
Unknown
Sunlit
N/A
Visualization observer readout
Local Sidereal Time
15:57:40
Azimuth
Unknown
Elevation
Unknown
Doppler factor
Unknown
Orbital elements
Apogee altitude
736.297 km
Perigee altitude
637.815 km
Semi-major axis
7,065.193 km
Eccentricity
0.00697
Inclination
74.0171°
RAAN
260.5817°
Arg. of periapsis
46.2502°
True anomaly
329.15242°
Mean anomaly
329.5601°
Eccentric anomaly
329.35657°
Mean motion
3.65475 °/min
Orbital period
98.5 mins
BSTAR
0.00024257
Loading maneuver chart data...
Computing Atmospheric mass density...

Documentation

Showing up to 5 results
|